| time (UTC) | temp F | wind direction | speed knots | gust knots | rain 1hr in | rain 24hr in | rain mn in | humidity % | barometer mb |
| 20260505071350 | 66 | 225 | 3.5 | 7.0 | 0.00 | 0.00 | 0.00 | 68 | 1006.0 |
| 20260505070849 | 66 | 181 | 2.6 | 3.5 | 0.00 | 0.00 | 0.00 | 68 | 1005.9 |
| 20260505070348 | 66 | 214 | 4.3 | 7.0 | 0.00 | 0.00 | 0.00 | 68 | 1005.9 |
| 20260505065848 | 66 | 202 | 1.7 | 5.2 | 0.00 | 0.00 | 0.00 | 68 | 1005.7 |
| 20260505065348 | 66 | 224 | 3.5 | 7.0 | 0.00 | 0.00 | 0.00 | 68 | 1005.7 |
| 20260505064850 | 67 | 213 | 4.3 | 7.8 | 0.00 | 0.00 | 0.00 | 68 | 1005.5 |
| 20260505064355 | 67 | 195 | 5.2 | 7.8 | 0.00 | 0.00 | 0.00 | 68 | 1005.7 |
| 20260505063848 | 67 | 187 | 3.5 | 5.2 | 0.00 | 0.00 | 0.00 | 67 | 1005.8 |
| 20260505063348 | 67 | 191 | 3.5 | 6.1 | 0.00 | 0.00 | 0.00 | 67 | 1005.9 |
| 20260505062848 | 67 | 200 | 3.5 | 5.2 | 0.00 | 0.00 | 0.00 | 67 | 1006.0 |
| 20260505062350 | 67 | 214 | 5.2 | 7.8 | 0.00 | 0.00 | 0.00 | 67 | 1006.0 |
| 20260505061848 | 66 | 186 | 3.5 | 5.2 | 0.00 | 0.00 | 0.00 | 67 | 1006.1 |
| 20260505061350 | 66 | 212 | 3.5 | 7.0 | 0.00 | 0.00 | 0.00 | 68 | 1006.1 |
| 20260505060850 | 66 | 213 | 4.3 | 6.1 | 0.00 | 0.00 | 0.00 | 68 | 1006.1 |
| 20260505060350 | 66 | 193 | 1.7 | 2.6 | 0.00 | 0.00 | 0.00 | 68 | 1006.1 |
| 20260505055849 | 66 | 199 | 2.6 | 5.2 | 0.00 | 0.00 | 0.00 | 68 | 1006.1 |
| 20260505055348 | 66 | 201 | 2.6 | 4.3 | 0.00 | 0.00 | 0.00 | 68 | 1006.1 |
| 20260505054849 | 66 | 204 | 1.7 | 3.5 | 0.00 | 0.00 | 0.00 | 68 | 1006.2 |
| 20260505054348 | 66 | 184 | 2.6 | 4.3 | 0.00 | 0.00 | 0.00 | 67 | 1006.3 |
| 20260505053848 | 67 | 191 | 2.6 | 4.3 | 0.00 | 0.00 | 0.00 | 67 | 1006.2 |
| 20260505053350 | 67 | 218 | 4.3 | 5.2 | 0.00 | 0.00 | 0.00 | 66 | 1006.3 |
| 20260505052849 | 67 | 190 | 5.2 | 7.8 | 0.00 | 0.00 | 0.00 | 66 | 1006.3 |
| 20260505052348 | 67 | 170 | 1.7 | 5.2 | 0.00 | 0.00 | 0.00 | 66 | 1006.3 |
| 20260505051848 | 67 | 220 | 1.7 | 3.5 | 0.00 | 0.00 | 0.00 | 66 | 1006.3 |
| 20260505051349 | 67 | 202 | 6.1 | 9.6 | 0.00 | 0.00 | 0.00 | 66 | 1006.3 |
| 20260505050848 | 67 | 204 | 5.2 | 8.7 | 0.00 | 0.00 | 0.00 | 66 | 1006.3 |
| 20260505050348 | 67 | 188 | 4.3 | 7.0 | 0.00 | 0.00 | 0.00 | 66 | 1006.1 |
| 20260505041349 | 68 | 197 | 4.3 | 7.0 | 0.00 | 0.00 | 0.00 | 64 | 1006.2 |
| 20260505040848 | 68 | 202 | 6.1 | 9.6 | 0.00 | 0.00 | 0.00 | 64 | 1006.3 |
| 20260505040349 | 68 | 193 | 6.1 | 9.6 | 0.00 | 0.00 | 0.00 | 64 | 1006.4 |
| 20260505035850 | 68 | 199 | 4.3 | 7.8 | 0.00 | 0.00 | 0.00 | 64 | 1006.5 |
| 20260505035351 | 68 | 190 | 4.3 | 7.0 | 0.00 | 0.00 | 0.00 | 65 | 1006.6 |
| 20260505034849 | 68 | 195 | 3.5 | 7.0 | 0.00 | 0.00 | 0.00 | 65 | 1006.7 |
| 20260505034348 | 68 | 210 | 5.2 | 7.8 | 0.00 | 0.00 | 0.00 | 65 | 1006.7 |
| 20260505033849 | 68 | 217 | 2.6 | 5.2 | 0.00 | 0.00 | 0.00 | 65 | 1006.8 |
| 20260505033349 | 68 | 228 | 2.6 | 5.2 | 0.00 | 0.00 | 0.00 | 65 | 1006.8 |
| 20260505032849 | 67 | 221 | 4.3 | 7.8 | 0.00 | 0.00 | 0.00 | 65 | 1006.9 |
| 20260505032349 | 67 | 205 | 3.5 | 5.2 | 0.00 | 0.00 | 0.00 | 66 | 1006.9 |
| 20260505031849 | 68 | 205 | 3.5 | 4.3 | 0.00 | 0.00 | 0.00 | 66 | 1006.8 |
| 20260505031348 | 68 | 195 | 3.5 | 5.2 | 0.00 | 0.00 | 0.00 | 66 | 1006.8 |
| 20260505030849 | 67 | 213 | 2.6 | 4.3 | 0.00 | 0.00 | 0.00 | 66 | 1006.9 |
| 20260505030350 | 67 | 199 | 1.7 | 2.6 | 0.00 | 0.00 | 0.00 | 66 | 1006.9 |
| 20260505025851 | 67 | 201 | 2.6 | 3.5 | 0.00 | 0.00 | 0.00 | 65 | 1007.0 |
| 20260505025350 | 67 | 186 | 1.7 | 5.2 | 0.00 | 0.00 | 0.00 | 66 | 1006.9 |
| 20260505024852 | 67 | 221 | 0.9 | 1.7 | 0.00 | 0.00 | 0.00 | 66 | 1006.9 |
| 20260505024352 | 67 | 214 | 0.0 | 1.7 | 0.00 | 0.00 | 0.00 | 66 | 1006.8 |
| 20260505023849 | 68 | 204 | 0.9 | 1.7 | 0.00 | 0.00 | 0.00 | 65 | 1006.8 |
| 20260505023350 | 69 | 217 | 0.0 | 1.7 | 0.00 | 0.00 | 0.00 | 63 | 1006.8 |
| 20260505022851 | 69 | 269 | 0.9 | 0.9 | 0.00 | 0.00 | 0.00 | 63 | 1006.7 |
| 20260505022350 | 69 | 226 | 2.6 | 3.5 | 0.00 | 0.00 | 0.00 | 62 | 1006.6 |
| 20260505021850 | 70 | 207 | 2.6 | 5.2 | 0.00 | 0.00 | 0.00 | 61 | 1006.5 |
| 20260505021351 | 70 | 243 | 1.7 | 3.5 | 0.00 | 0.00 | 0.00 | 61 | 1006.5 |
| 20260505020851 | 70 | 283 | 1.7 | 1.7 | 0.00 | 0.00 | 0.00 | 60 | 1006.5 |
| 20260505020349 | 71 | 246 | 1.7 | 3.5 | 0.00 | 0.00 | 0.00 | 58 | 1006.4 |
| 20260505015849 | 71 | 246 | 1.7 | 2.6 | 0.00 | 0.00 | 0.00 | 58 | 1006.3 |
| 20260505015349 | 71 | 223 | 2.6 | 4.3 | 0.00 | 0.00 | 0.00 | 58 | 1006.1 |
| 20260505014848 | 72 | 202 | 3.5 | 4.3 | 0.00 | 0.00 | 0.00 | 57 | 1006.1 |
| 20260505014348 | 72 | 217 | 2.6 | 3.5 | 0.00 | 0.00 | 0.00 | 56 | 1006.1 |
| 20260505013849 | 72 | 230 | 4.3 | 7.0 | 0.00 | 0.00 | 0.00 | 55 | 1006.1 |
| 20260505013349 | 72 | 216 | 3.5 | 4.3 | 0.00 | 0.00 | 0.00 | 55 | 1006.0 |
| 20260505012848 | 72 | 213 | 3.5 | 5.2 | 0.00 | 0.00 | 0.00 | 55 | 1005.9 |
| 20260505012348 | 73 | 227 | 2.6 | 3.5 | 0.00 | 0.00 | 0.00 | 55 | 1005.9 |
| 20260505011849 | 73 | 217 | 3.5 | 6.1 | 0.00 | 0.00 | 0.00 | 54 | 1005.9 |
| 20260505011350 | 73 | 220 | 2.6 | 4.3 | 0.00 | 0.00 | 0.00 | 53 | 1005.8 |
| 20260505010849 | 73 | 210 | 3.5 | 4.3 | 0.00 | 0.00 | 0.00 | 53 | 1005.7 |
| 20260505010349 | 73 | 221 | 4.3 | 7.0 | 0.00 | 0.00 | 0.00 | 53 | 1005.6 |
| 20260505005850 | 74 | 225 | 3.5 | 7.8 | 0.00 | 0.00 | 0.00 | 53 | 1005.6 |
| 20260505005350 | 74 | 219 | 5.2 | 7.8 | 0.00 | 0.00 | 0.00 | 51 | 1005.6 |
| 20260505004850 | 74 | 200 | 6.1 | 7.8 | 0.00 | 0.00 | 0.00 | 52 | 1005.5 |
| 20260505004348 | 74 | 211 | 1.7 | 4.3 | 0.00 | 0.00 | 0.00 | 53 | 1005.5 |
| 20260505003850 | 74 | 211 | 3.5 | 5.2 | 0.00 | 0.00 | 0.00 | 52 | 1005.5 |
| 20260505003348 | 74 | 209 | 1.7 | 5.2 | 0.00 | 0.00 | 0.00 | 52 | 1005.4 |
| 20260505002848 | 75 | 217 | 3.5 | 5.2 | 0.00 | 0.00 | 0.00 | 51 | 1005.3 |
| 20260505002349 | 75 | 230 | 2.6 | 4.3 | 0.00 | 0.00 | 0.00 | 50 | 1005.3 |
| 20260505001849 | 75 | 213 | 4.3 | 7.0 | 0.00 | 0.00 | 0.00 | 50 | 1005.2 |
| 20260505001350 | 75 | 209 | 2.6 | 3.5 | 0.00 | 0.00 | 0.00 | 50 | 1005.3 |
| 20260505000849 | 76 | 210 | 3.5 | 6.1 | 0.00 | 0.00 | 0.00 | 48 | 1005.3 |
| 20260505000350 | 76 | 212 | 6.1 | 8.7 | 0.00 | 0.00 | 0.00 | 48 | 1005.4 |
| 20260504235848 | 76 | 240 | 5.2 | 8.7 | 0.00 | 0.00 | 0.00 | 49 | 1005.4 |
| 20260504235349 | 76 | 210 | 2.6 | 4.3 | 0.00 | 0.00 | 0.00 | 49 | 1005.4 |
| 20260504234848 | 76 | 231 | 3.5 | 5.2 | 0.00 | 0.00 | 0.00 | 48 | 1005.4 |
| 20260504234348 | 77 | 248 | 3.5 | 5.2 | 0.00 | 0.00 | 0.00 | 49 | 1005.5 |
| 20260504233848 | 77 | 242 | 3.5 | 6.1 | 0.00 | 0.00 | 0.00 | 47 | 1005.4 |
| 20260504233349 | 78 | 236 | 4.3 | 6.1 | 0.00 | 0.00 | 0.00 | 46 | 1005.4 |
| 20260504232848 | 78 | 268 | 3.5 | 7.0 | 0.00 | 0.00 | 0.00 | 44 | 1005.4 |
| 20260504232348 | 79 | 230 | 4.3 | 7.8 | 0.00 | 0.00 | 0.00 | 45 | 1005.4 |
| 20260504231850 | 79 | 221 | 5.2 | 7.0 | 0.00 | 0.00 | 0.00 | 46 | 1005.4 |
| 20260504231348 | 79 | 219 | 5.2 | 10.4 | 0.00 | 0.00 | 0.00 | 47 | 1005.4 |
| 20260504230849 | 79 | 238 | 5.2 | 8.7 | 0.00 | 0.00 | 0.00 | 46 | 1005.4 |
| 20260504230348 | 79 | 232 | 7.0 | 10.4 | 0.00 | 0.00 | 0.00 | 46 | 1005.5 |
| 20260504225848 | 79 | 198 | 4.3 | 7.0 | 0.00 | 0.00 | 0.00 | 47 | 1005.5 |
| 20260504225349 | 79 | 219 | 4.3 | 7.0 | 0.00 | 0.00 | 0.00 | 47 | 1005.4 |
| 20260504224848 | 79 | 207 | 7.0 | 13.0 | 0.00 | 0.00 | 0.00 | 46 | 1005.4 |
| 20260504224348 | 79 | 230 | 5.2 | 7.8 | 0.00 | 0.00 | 0.00 | 47 | 1005.4 |
| 20260504223849 | 79 | 223 | 7.8 | 10.4 | 0.00 | 0.00 | 0.00 | 46 | 1005.5 |
| 20260504223348 | 80 | 229 | 5.2 | 7.8 | 0.00 | 0.00 | 0.00 | 46 | 1005.5 |
| 20260504222849 | 80 | 235 | 3.5 | 7.0 | 0.00 | 0.00 | 0.00 | 47 | 1005.5 |
| 20260504222351 | 79 | 245 | 4.3 | 6.1 | 0.00 | 0.00 | 0.00 | 47 | 1005.4 |
| 20260504221848 | 79 | 208 | 4.3 | 6.1 | 0.00 | 0.00 | 0.00 | 49 | 1005.4 |
| 20260504221348 | 79 | 216 | 7.0 | 9.6 | 0.00 | 0.00 | 0.00 | 46 | 1005.5 |
| 20260504220409 | 79 | 252 | 2.6 | 5.2 | 0.00 | 0.00 | 0.00 | 47 | 1005.5 |
| 20260504215849 | 79 | 245 | 7.0 | 12.2 | 0.00 | 0.00 | 0.00 | 46 | 1005.5 |
| 20260504215348 | 79 | 210 | 4.3 | 7.8 | 0.00 | 0.00 | 0.00 | 47 | 1005.4 |
| 20260504214849 | 79 | 202 | 4.3 | 6.1 | 0.00 | 0.00 | 0.00 | 48 | 1005.5 |
| 20260504214349 | 79 | 194 | 7.0 | 10.4 | 0.00 | 0.00 | 0.00 | 47 | 1005.5 |
| 20260504213849 | 79 | 242 | 7.8 | 10.4 | 0.00 | 0.00 | 0.00 | 47 | 1005.6 |
| 20260504213349 | 78 | 248 | 7.0 | 11.3 | 0.00 | 0.00 | 0.00 | 46 | 1005.6 |
| 20260504212850 | 79 | 218 | 7.0 | 8.7 | 0.00 | 0.00 | 0.00 | 48 | 1005.6 |
| 20260504212350 | 79 | 232 | 5.2 | 7.8 | 0.00 | 0.00 | 0.00 | 48 | 1005.6 |
| 20260504211848 | 79 | 231 | 7.8 | 11.3 | 0.00 | 0.00 | 0.00 | 46 | 1005.7 |
| 20260504211350 | 79 | 222 | 5.2 | 8.7 | 0.00 | 0.00 | 0.00 | 46 | 1005.8 |
| 20260504210850 | 79 | 233 | 6.1 | 7.8 | 0.00 | 0.00 | 0.00 | 46 | 1005.9 |
| 20260504210349 | 79 | 225 | 7.0 | 11.3 | 0.00 | 0.00 | 0.00 | 47 | 1006.0 |
| 20260504205850 | 79 | 222 | 7.0 | 9.6 | 0.00 | 0.00 | 0.00 | 46 | 1006.0 |
| 20260504205348 | 79 | 206 | 7.0 | 13.9 | 0.00 | 0.00 | 0.00 | 47 | 1006.0 |
| 20260504204850 | 79 | 225 | 5.2 | 7.0 | 0.00 | 0.00 | 0.00 | 46 | 1006.1 |
| 20260504204348 | 79 | 234 | 8.7 | 13.0 | 0.00 | 0.00 | 0.00 | 44 | 1006.1 |
| 20260504203849 | 80 | 232 | 7.0 | 11.3 | 0.00 | 0.00 | 0.00 | 45 | 1006.1 |
| 20260504203348 | 80 | 218 | 7.0 | 11.3 | 0.00 | 0.00 | 0.00 | 46 | 1006.3 |
| 20260504202849 | 80 | 238 | 5.2 | 7.8 | 0.00 | 0.00 | 0.00 | 45 | 1006.3 |
| 20260504202348 | 79 | 195 | 7.8 | 10.4 | 0.00 | 0.00 | 0.00 | 48 | 1006.4 |
| 20260504201850 | 79 | 203 | 8.7 | 11.3 | 0.00 | 0.00 | 0.00 | 47 | 1006.3 |
| 20260504201348 | 79 | 214 | 6.1 | 10.4 | 0.00 | 0.00 | 0.00 | 48 | 1006.5 |
| 20260504200849 | 79 | 195 | 9.6 | 12.2 | 0.00 | 0.00 | 0.00 | 47 | 1006.6 |
| 20260504200355 | 80 | 221 | 8.7 | 12.2 | 0.00 | 0.00 | 0.00 | 46 | 1006.5 |
| 20260504195852 | 80 | 211 | 9.6 | 13.0 | 0.00 | 0.00 | 0.00 | 47 | 1006.5 |
| 20260504195348 | 80 | 199 | 7.0 | 13.0 | 0.00 | 0.00 | 0.00 | 47 | 1006.6 |
| 20260504194849 | 79 | 226 | 7.0 | 11.3 | 0.00 | 0.00 | 0.00 | 48 | 1006.7 |
| 20260504194350 | 79 | 216 | 7.8 | 13.0 | 0.00 | 0.00 | 0.00 | 46 | 1006.7 |
| 20260504193848 | 79 | 211 | 8.7 | 12.2 | 0.00 | 0.00 | 0.00 | 47 | 1006.8 |
| 20260504193349 | 79 | 190 | 7.8 | 11.3 | 0.00 | 0.00 | 0.00 | 47 | 1006.9 |
| 20260504192849 | 79 | 247 | 8.7 | 11.3 | 0.00 | 0.00 | 0.00 | 45 | 1006.9 |
| 20260504192349 | 79 | 226 | 8.7 | 11.3 | 0.00 | 0.00 | 0.00 | 46 | 1006.9 |
| 20260504191849 | 79 | 223 | 6.1 | 9.6 | 0.00 | 0.00 | 0.00 | 47 | 1007.0 |
| 20260504191348 | 79 | 206 | 7.8 | 10.4 | 0.00 | 0.00 | 0.00 | 47 | 1006.9 |
| 20260504190849 | 79 | 214 | 7.8 | 12.2 | 0.00 | 0.00 | 0.00 | 46 | 1006.8 |
| 20260504190350 | 79 | 262 | 6.1 | 9.6 | 0.00 | 0.00 | 0.00 | 46 | 1006.8 |
| 20260504185851 | 79 | 246 | 7.8 | 11.3 | 0.00 | 0.00 | 0.00 | 45 | 1006.8 |
| 20260504185351 | 79 | 243 | 7.8 | 9.6 | 0.00 | 0.00 | 0.00 | 45 | 1007.0 |
| 20260504184848 | 79 | 235 | 8.7 | 14.8 | 0.00 | 0.00 | 0.00 | 45 | 1007.0 |
| 20260504184351 | 79 | 221 | 7.8 | 12.2 | 0.00 | 0.00 | 0.00 | 46 | 1007.1 |
| 20260504183854 | 79 | 237 | 6.1 | 10.4 | 0.00 | 0.00 | 0.00 | 46 | 1007.1 |
| 20260504183352 | 79 | 256 | 7.0 | 9.6 | 0.00 | 0.00 | 0.00 | 44 | 1007.1 |
| 20260504182850 | 79 | 262 | 7.8 | 10.4 | 0.00 | 0.00 | 0.00 | 46 | 1007.2 |
| 20260504182352 | 78 | 218 | 6.1 | 9.6 | 0.00 | 0.00 | 0.00 | 46 | 1007.1 |
| 20260504181853 | 79 | 203 | 9.6 | 13.0 | 0.00 | 0.00 | 0.00 | 46 | 1007.1 |
| 20260504181351 | 79 | 212 | 5.2 | 7.8 | 0.00 | 0.00 | 0.00 | 47 | 1007.1 |
| 20260504180850 | 79 | 240 | 7.0 | 8.7 | 0.00 | 0.00 | 0.00 | 46 | 1007.0 |
| 20260504180350 | 79 | 245 | 6.1 | 9.6 | 0.00 | 0.00 | 0.00 | 45 | 1007.0 |
| 20260504175849 | 78 | 268 | 5.2 | 7.8 | 0.00 | 0.00 | 0.00 | 46 | 1006.9 |
| 20260504175351 | 78 | 224 | 7.8 | 10.4 | 0.00 | 0.00 | 0.00 | 46 | 1007.0 |
| 20260504174858 | 78 | 234 | 9.6 | 14.8 | 0.00 | 0.00 | 0.00 | 45 | 1007.2 |
| 20260504174352 | 78 | 274 | 4.3 | 7.8 | 0.00 | 0.00 | 0.00 | 46 | 1007.1 |
| 20260504173853 | 78 | 266 | 8.7 | 12.2 | 0.00 | 0.00 | 0.00 | 46 | 1007.0 |
| 20260504173350 | 78 | 214 | 7.8 | 11.3 | 0.00 | 0.00 | 0.00 | 47 | 1007.1 |
| 20260504172850 | 78 | 217 | 7.0 | 11.3 | 0.00 | 0.00 | 0.00 | 47 | 1007.0 |
| 20260504172350 | 78 | 234 | 6.1 | 8.7 | 0.00 | 0.00 | 0.00 | 46 | 1007.1 |
| 20260504171849 | 77 | 243 | 6.1 | 10.4 | 0.00 | 0.00 | 0.00 | 47 | 1007.2 |
| 20260504171350 | 77 | 264 | 6.1 | 9.6 | 0.00 | 0.00 | 0.00 | 46 | 1007.1 |
| 20260504170851 | 77 | 233 | 7.8 | 9.6 | 0.00 | 0.00 | 0.00 | 47 | 1007.2 |
| 20260504170349 | 77 | 227 | 6.1 | 9.6 | 0.00 | 0.00 | 0.00 | 49 | 1007.2 |
| 20260504160351 | 75 | 245 | 6.1 | 9.6 | 0.00 | 0.00 | 0.00 | 47 | 1007.5 |
| 20260504150852 | 72 | 234 | 7.0 | 8.7 | 0.00 | 0.00 | 0.00 | 47 | 1008.2 |
| 20260504150351 | 72 | 220 | 8.7 | 13.0 | 0.00 | 0.00 | 0.00 | 47 | 1008.2 |
| 20260504140853 | 69 | 221 | 7.8 | 11.3 | 0.00 | 0.00 | 0.00 | 50 | 1008.8 |
| 20260504140354 | 69 | 239 | 5.2 | 7.8 | 0.00 | 0.00 | 0.00 | 52 | 1008.8 |
| 20260504130351 | 65 | 223 | 5.2 | 7.8 | 0.00 | 0.00 | 0.00 | 55 | 1009.0 |
| 20260504110350 | 64 | 230 | 3.5 | 5.2 | 0.00 | 0.00 | 0.00 | 55 | 1009.5 |
| 20260504100350 | 64 | 217 | 4.3 | 7.8 | 0.00 | 0.00 | 0.00 | 53 | 1009.6 |
| 20260504081848 | 66 | 238 | 4.3 | 7.0 | 0.00 | 0.00 | 0.00 | 52 | 1009.8 |
| 20260504081350 | 66 | 236 | 5.2 | 7.0 | 0.00 | 0.00 | 0.00 | 52 | 1009.8 |
| 20260504080849 | 66 | 243 | 3.5 | 6.1 | 0.00 | 0.00 | 0.00 | 53 | 1009.9 |
| 20260504080349 | 66 | 230 | 4.3 | 7.0 | 0.00 | 0.00 | 0.00 | 52 | 1010.0 |